Regional Weather Roundup
Issued by NWS

Home | Current Version | Previous Version | Text Only | Print | Product List | Glossary On
Versions: 1 2 3 4 5 6 7 8 9 10 11 12 13 14 15 16 17 18 19 20 21 22 23 24 25 26 27 28 29 30 31 32 33 34 35 36 37 38 39 40 41 42 43 44 45 46 47 48 49 50
000
ASUS45 KREV 281510
RWRNV
NEVADA REGIONAL WEATHER ROUNDUP
NATIONAL WEATHER SERVICE RENO NV
800 AM PDT WED SEP 28 2016

NOTE: "FAIR" INDICATES FEW OR NO CLOUDS BELOW 12,000 FEET WITH NO
SIGNIFICANT WEATHER AND/OR OBSTRUCTIONS TO VISIBILITY.

NVZ001-003-004-281600-
WESTERN NEVADA

CITY           SKY/WX    TMP DP  RH WIND       PRES   REMARKS
RENO           SUNNY     54  33  45 CALM      30.11
CARSON CITY    FAIR      48  30  49 CALM      30.14R
MINDEN         FAIR      46  27  46 CALM      30.14R
FALLON         MOSUNNY   59  28  30 CALM      30.07
LOVELOCK       SUNNY     47  24  40 CALM      30.08
HAWTHORNE        N/A     63  27  25 CALM      30.11R
$$

NVZ002-CAZ072-073-281600-
NORTHERN AND CENTRAL SIERRA

CITY           SKY/WX    TMP DP  RH WIND       PRES   REMARKS
S. LAKE TAHOE  SUNNY     37  30  75 S3        30.22
TRUCKEE        SUNNY     37  34  87 CALM      30.22R
SQUAW VLY 8000 NOT AVBL
MAMMOTH LAKES  FAIR      43  25  48 CALM      30.30S
BRIDGEPORT       N/A     37  21  52 CALM      30.25
$$

NVZ030-031-036-281600-
NORTHERN NEVADA

CITY           SKY/WX    TMP DP  RH WIND       PRES   REMARKS
ELKO           SUNNY     49  38  65 E6        30.20
WINNEMUCCA     SUNNY     53  30  41 E3        30.09
WENDOVER       SUNNY     54  45  71 NE3       30.20R
$$

NVZ035-037-281600-
CENTRAL NEVADA

CITY           SKY/WX    TMP DP  RH WIND       PRES   REMARKS
ELY            SUNNY     47  31  53 S9        30.28
EUREKA           N/A     53  35  50 S7        30.22
$$

NVZ013-014-281600-
SOUTH CENTRAL NEVADA

CITY           SKY/WX    TMP DP  RH WIND       PRES   REMARKS
TONOPAH        SUNNY     55  30  38 N10       30.21
$$

NVZ017-020-022-281600-
SOUTHERN NEVADA

CITY           SKY/WX    TMP DP  RH WIND       PRES   REMARKS
LAS VEGAS      PTSUNNY   73  47  39 SE5       30.04
N. LAS VEGAS   PTSUNNY   72  57  59 N3        30.03
NELLIS AFB     PTSUNNY   71  60  67 W1        30.02
HENDERSON      PTSUNNY   71  52  50 CALM      30.07
MERCURY        CLOUDY    67  35  30 N3        30.08
$$



USA.gov is the U.S. government's official web portal to all federal, state and local government web resources and services.